Time,TemperatureF,DewpointF,PressureIn,WindDirection,WindDirectionDegrees,WindSpeedMPH,WindSpeedGustMPH,Humidity,HourlyPrecipIn,Conditions,Clouds,dailyrainin,SoftwareType,DateUTC
2013-09-17 00:01:00,50.4,41.8,30.19,South,180,0.2,1.8,72,0.00,,,0.00,WUHU216HW,2013-09-17 04:01:00,
2013-09-17 00:06:00,50.2,41.6,30.19,SE,135,0.7,1.8,72,0.00,,,0.00,WUHU216HW,2013-09-17 04:06:00,
2013-09-17 00:11:00,50.2,41.6,30.19,East,90,0.2,1.8,72,0.00,,,0.00,WUHU216HW,2013-09-17 04:11:00,
2013-09-17 00:16:00,50.2,41.6,30.19,ESE,113,0.4,1.8,72,0.00,,,0.00,WUHU216HW,2013-09-17 04:16:00,
2013-09-17 00:21:00,50.2,41.6,30.19,NNE,23,0.0,1.6,72,0.00,,,0.00,WUHU216HW,2013-09-17 04:21:00,
2013-09-17 00:26:00,50.0,41.4,30.18,East,90,2.5,2.5,72,0.00,,,0.00,WUHU216HW,2013-09-17 04:26:00,
2013-09-17 00:31:00,50.0,41.4,30.19,SE,135,0.4,2.5,72,0.00,,,0.00,WUHU216HW,2013-09-17 04:31:00,
2013-09-17 00:36:00,50.0,41.4,30.18,SE,135,0.0,1.1,72,0.00,,,0.00,WUHU216HW,2013-09-17 04:36:00,
2013-09-17 00:41:00,50.0,41.4,30.18,SE,135,0.2,0.4,72,0.00,,,0.00,WUHU216HW,2013-09-17 04:41:00,
2013-09-17 00:46:00,49.9,41.5,30.19,East,90,0.4,0.4,73,0.00,,,0.00,WUHU216HW,2013-09-17 04:46:00,
2013-09-17 00:51:00,49.7,41.3,30.19,ESE,113,1.6,1.6,73,0.00,,,0.00,WUHU216HW,2013-09-17 04:51:00,
2013-09-17 00:56:00,49.5,41.1,30.19,ESE,113,1.1,1.6,73,0.00,,,0.00,WUHU216HW,2013-09-17 04:56:00,
2013-09-17 01:01:00,49.5,41.1,30.19,SSE,158,0.0,1.1,73,0.00,,,0.00,WUHU216HW,2013-09-17 05:01:00,
2013-09-17 01:06:00,49.3,41.0,30.18,SE,135,0.2,0.2,73,0.00,,,0.00,WUHU216HW,2013-09-17 05:06:00,
2013-09-17 01:11:00,49.3,41.0,30.18,ESE,113,0.0,0.2,73,0.00,,,0.00,WUHU216HW,2013-09-17 05:11:00,
2013-09-17 01:16:00,49.3,41.0,30.18,ESE,113,0.2,0.2,73,0.00,,,0.00,WUHU216HW,2013-09-17 05:16:00,
2013-09-17 01:21:00,49.3,41.0,30.18,ESE,113,0.0,0.4,73,0.00,,,0.00,WUHU216HW,2013-09-17 05:21:00,
2013-09-17 01:26:00,49.1,41.1,30.18,ESE,113,0.0,0.4,74,0.00,,,0.00,WUHU216HW,2013-09-17 05:26:00,
2013-09-17 01:31:00,49.1,41.1,30.18,ESE,113,0.0,0.2,74,0.00,,,0.00,WUHU216HW,2013-09-17 05:31:00,
2013-09-17 01:36:00,49.0,41.0,30.18,ESE,113,0.0,0.4,74,0.00,,,0.00,WUHU216HW,2013-09-17 05:36:00,
2013-09-17 01:41:00,49.0,41.0,30.19,ESE,113,0.0,0.4,74,0.00,,,0.00,WUHU216HW,2013-09-17 05:41:00,
2013-09-17 01:46:00,49.0,41.0,30.19,ESE,113,0.4,0.4,74,0.00,,,0.00,WUHU216HW,2013-09-17 05:46:00,
2013-09-17 01:51:00,48.8,40.8,30.19,ESE,113,0.0,0.4,74,0.00,,,0.00,WUHU216HW,2013-09-17 05:51:00,
2013-09-17 01:56:00,48.8,40.8,30.19,ESE,113,0.0,0.0,74,0.00,,,0.00,WUHU216HW,2013-09-17 05:56:00,
2013-09-17 02:01:00,48.6,40.6,30.19,ESE,113,0.0,0.0,74,0.00,,,0.00,WUHU216HW,2013-09-17 06:01:00,
2013-09-17 02:06:00,48.6,41.0,30.19,ESE,113,0.0,0.0,75,0.00,,,0.00,WUHU216HW,2013-09-17 06:06:00,
2013-09-17 02:11:00,48.6,41.0,30.18,ESE,113,0.0,0.0,75,0.00,,,0.00,WUHU216HW,2013-09-17 06:11:00,
2013-09-17 02:16:00,48.4,40.8,30.18,ESE,113,0.0,0.0,75,0.00,,,0.00,WUHU216HW,2013-09-17 06:16:00,
2013-09-17 02:21:00,48.4,40.8,30.19,ESE,113,0.0,0.0,75,0.00,,,0.00,WUHU216HW,2013-09-17 06:21:00,
2013-09-17 02:26:00,48.2,40.6,30.19,ESE,113,0.0,0.0,75,0.00,,,0.00,WUHU216HW,2013-09-17 06:26:00,
2013-09-17 02:31:00,48.2,40.6,30.19,ESE,113,0.0,0.0,75,0.00,,,0.00,WUHU216HW,2013-09-17 06:31:00,
2013-09-17 02:36:00,48.2,40.6,30.19,ESE,113,0.0,0.0,75,0.00,,,0.00,WUHU216HW,2013-09-17 06:36:00,
2013-09-17 02:41:00,48.1,40.4,30.19,ESE,113,0.0,0.0,75,0.00,,,0.00,WUHU216HW,2013-09-17 06:41:00,
2013-09-17 02:46:00,47.9,40.2,30.19,North,0,0.0,0.0,75,0.00,,,0.00,WUHU216HW,2013-09-17 06:46:00,
2013-09-17 02:51:00,47.7,40.2,30.19,North,0,0.0,0.0,75,0.00,,,0.00,WUHU216HW,2013-09-17 06:51:00,
2013-09-17 02:56:00,47.5,40.0,30.19,North,0,0.0,0.0,75,0.00,,,0.00,WUHU216HW,2013-09-17 06:56:00,
2013-09-17 03:01:00,47.3,39.8,30.19,North,0,0.0,0.0,75,0.00,,,0.00,WUHU216HW,2013-09-17 07:01:00,
2013-09-17 03:06:00,47.2,39.6,30.19,North,0,0.0,0.0,75,0.00,,,0.00,WUHU216HW,2013-09-17 07:06:00,
2013-09-17 03:11:00,47.2,40.0,30.19,North,0,0.0,0.0,76,0.00,,,0.00,WUHU216HW,2013-09-17 07:11:00,
2013-09-17 03:16:00,46.8,39.6,30.19,North,0,0.0,0.0,76,0.00,,,0.00,WUHU216HW,2013-09-17 07:16:00,
2013-09-17 03:21:00,46.6,39.5,30.19,North,0,0.0,0.0,76,0.00,,,0.00,WUHU216HW,2013-09-17 07:21:00,
2013-09-17 03:26:00,46.4,39.3,30.19,North,0,0.0,0.0,76,0.00,,,0.00,WUHU216HW,2013-09-17 07:26:00,
2013-09-17 03:31:00,46.4,39.3,30.19,North,0,0.0,0.0,76,0.00,,,0.00,WUHU216HW,2013-09-17 07:31:00,
2013-09-17 03:36:00,46.3,39.2,30.19,North,0,0.0,0.0,76,0.00,,,0.00,WUHU216HW,2013-09-17 07:36:00,
2013-09-17 03:41:00,46.1,39.0,30.19,North,0,0.0,0.0,76,0.00,,,0.00,WUHU216HW,2013-09-17 07:41:00,
2013-09-17 03:46:00,45.9,39.2,30.19,North,0,0.0,0.0,77,0.00,,,0.00,WUHU216HW,2013-09-17 07:46:00,
2013-09-17 03:51:00,45.7,39.0,30.19,North,0,0.0,0.0,77,0.00,,,0.00,WUHU216HW,2013-09-17 07:51:00,
2013-09-17 03:56:00,45.7,39.0,30.19,North,0,0.0,0.0,77,0.00,,,0.00,WUHU216HW,2013-09-17 07:56:00,
2013-09-17 04:01:00,45.7,39.0,30.19,North,0,0.0,0.0,77,0.00,,,0.00,WUHU216HW,2013-09-17 08:01:00,
2013-09-17 04:06:00,45.5,38.8,30.19,North,0,0.0,0.0,77,0.00,,,0.00,WUHU216HW,2013-09-17 08:06:00,
2013-09-17 04:11:00,45.5,38.8,30.20,North,0,0.0,0.0,77,0.00,,,0.00,WUHU216HW,2013-09-17 08:11:00,
2013-09-17 04:16:00,45.4,38.3,30.20,North,0,0.0,0.0,76,0.00,,,0.00,WUHU216HW,2013-09-17 08:16:00,
2013-09-17 04:21:00,45.4,38.3,30.19,North,0,0.0,0.0,76,0.00,,,0.00,WUHU216HW,2013-09-17 08:21:00,
2013-09-17 04:26:00,45.2,38.1,30.20,North,0,0.0,0.0,76,0.00,,,0.00,WUHU216HW,2013-09-17 08:26:00,
2013-09-17 04:31:00,45.0,38.3,30.19,North,0,0.0,0.0,77,0.00,,,0.00,WUHU216HW,2013-09-17 08:31:00,
2013-09-17 04:36:00,45.0,38.3,30.20,North,0,0.0,0.0,77,0.00,,,0.00,WUHU216HW,2013-09-17 08:36:00,
2013-09-17 04:41:00,45.0,38.3,30.20,North,0,0.0,0.0,77,0.00,,,0.00,WUHU216HW,2013-09-17 08:41:00,
2013-09-17 04:46:00,44.8,38.1,30.20,North,0,0.0,0.0,77,0.00,,,0.00,WUHU216HW,2013-09-17 08:46:00,
2013-09-17 04:51:00,44.6,37.9,30.20,North,0,0.0,0.0,77,0.00,,,0.00,WUHU216HW,2013-09-17 08:51:00,
2013-09-17 04:56:00,44.6,37.9,30.20,North,0,0.0,0.0,77,0.00,,,0.00,WUHU216HW,2013-09-17 08:56:00,
2013-09-17 05:01:00,44.5,37.7,30.20,North,0,0.0,0.0,77,0.00,,,0.00,WUHU216HW,2013-09-17 09:01:00,
2013-09-17 05:06:00,44.5,37.7,30.20,North,0,0.0,0.0,77,0.00,,,0.00,WUHU216HW,2013-09-17 09:06:00,
2013-09-17 05:11:00,44.3,37.5,30.19,North,0,0.0,0.0,77,0.00,,,0.00,WUHU216HW,2013-09-17 09:11:00,
2013-09-17 05:16:00,44.3,37.5,30.19,North,0,0.0,0.0,77,0.00,,,0.00,WUHU216HW,2013-09-17 09:16:00,
2013-09-17 05:21:00,44.3,37.5,30.19,North,0,0.0,0.0,77,0.00,,,0.00,WUHU216HW,2013-09-17 09:21:00,
2013-09-17 05:26:00,44.1,37.4,30.19,North,0,0.0,0.0,77,0.00,,,0.00,WUHU216HW,2013-09-17 09:26:00,
2013-09-17 05:31:00,44.1,37.4,30.19,North,0,0.0,0.0,77,0.00,,,0.00,WUHU216HW,2013-09-17 09:31:00,
2013-09-17 05:36:00,44.1,37.7,30.19,North,0,0.0,0.0,78,0.00,,,0.00,WUHU216HW,2013-09-17 09:36:00,
2013-09-17 05:41:00,43.9,37.5,30.19,North,0,0.0,0.0,78,0.00,,,0.00,WUHU216HW,2013-09-17 09:41:00,
2013-09-17 05:46:00,43.9,37.5,30.19,North,0,0.0,0.0,78,0.00,,,0.00,WUHU216HW,2013-09-17 09:46:00,
2013-09-17 05:51:00,43.9,37.5,30.19,North,0,0.0,0.0,78,0.00,,,0.00,WUHU216HW,2013-09-17 09:51:00,
2013-09-17 05:56:00,43.9,37.5,30.19,North,0,0.0,0.0,78,0.00,,,0.00,WUHU216HW,2013-09-17 09:56:00,
2013-09-17 06:01:00,43.7,37.4,30.19,North,0,0.0,0.0,78,0.00,,,0.00,WUHU216HW,2013-09-17 10:01:00,
2013-09-17 06:06:00,43.6,37.2,30.19,North,0,0.0,0.0,78,0.00,,,0.00,WUHU216HW,2013-09-17 10:06:00,
2013-09-17 06:11:00,43.6,37.2,30.19,North,0,0.0,0.0,78,0.00,,,0.00,WUHU216HW,2013-09-17 10:11:00,
2013-09-17 06:16:00,43.6,37.2,30.20,North,0,0.0,0.0,78,0.00,,,0.00,WUHU216HW,2013-09-17 10:16:00,
2013-09-17 06:21:00,43.4,37.0,30.20,North,0,0.0,0.0,78,0.00,,,0.00,WUHU216HW,2013-09-17 10:21:00,
2013-09-17 06:26:00,43.2,36.8,30.20,North,0,0.0,0.0,78,0.00,,,0.00,WUHU216HW,2013-09-17 10:26:00,
2013-09-17 06:31:00,43.2,36.8,30.20,North,0,0.0,0.0,78,0.00,,,0.00,WUHU216HW,2013-09-17 10:31:00,
2013-09-17 06:36:00,43.2,37.1,30.20,North,0,0.0,0.0,79,0.00,,,0.00,WUHU216HW,2013-09-17 10:36:00,
2013-09-17 06:41:00,43.0,36.9,30.20,North,0,0.0,0.0,79,0.00,,,0.00,WUHU216HW,2013-09-17 10:41:00,
2013-09-17 06:46:00,43.0,36.9,30.20,North,0,0.0,0.0,79,0.00,,,0.00,WUHU216HW,2013-09-17 10:46:00,
2013-09-17 06:51:00,43.0,36.9,30.20,North,0,0.0,0.0,79,0.00,,,0.00,WUHU216HW,2013-09-17 10:51:00,
2013-09-17 06:56:00,43.0,36.9,30.20,North,0,0.0,0.0,79,0.00,,,0.00,WUHU216HW,2013-09-17 10:56:00,
2013-09-17 07:01:00,42.8,36.7,30.20,North,0,0.0,0.0,79,0.00,,,0.00,WUHU216HW,2013-09-17 11:01:00,
2013-09-17 07:06:00,42.8,36.7,30.20,North,0,0.0,0.0,79,0.00,,,0.00,WUHU216HW,2013-09-17 11:06:00,
2013-09-17 07:11:00,42.7,36.5,30.20,North,0,0.0,0.0,79,0.00,,,0.00,WUHU216HW,2013-09-17 11:11:00,
2013-09-17 07:16:00,42.7,36.5,30.20,North,0,0.0,0.0,79,0.00,,,0.00,WUHU216HW,2013-09-17 11:16:00,
2013-09-17 07:21:00,42.7,36.5,30.20,North,0,0.0,0.0,79,0.00,,,0.00,WUHU216HW,2013-09-17 11:21:00,
2013-09-17 07:26:00,42.5,36.4,30.20,North,0,0.0,0.0,79,0.00,,,0.00,WUHU216HW,2013-09-17 11:26:00,
2013-09-17 07:31:00,42.5,36.4,30.20,North,0,0.0,0.0,79,0.00,,,0.00,WUHU216HW,2013-09-17 11:31:00,
2013-09-17 07:36:00,42.5,36.4,30.20,North,0,0.0,0.0,79,0.00,,,0.00,WUHU216HW,2013-09-17 11:36:00,
2013-09-17 07:41:00,42.5,36.7,30.20,North,0,0.0,0.0,80,0.00,,,0.00,WUHU216HW,2013-09-17 11:41:00,
2013-09-17 07:46:00,42.5,36.7,30.20,North,0,0.0,0.0,80,0.00,,,0.00,WUHU216HW,2013-09-17 11:46:00,
2013-09-17 07:51:00,42.5,36.7,30.21,North,0,0.0,0.0,80,0.00,,,0.00,WUHU216HW,2013-09-17 11:51:00,
2013-09-17 07:56:00,42.5,36.7,30.21,North,0,0.0,0.0,80,0.00,,,0.00,WUHU216HW,2013-09-17 11:56:00,
2013-09-17 08:01:00,42.5,36.7,30.20,North,0,0.0,0.0,80,0.00,,,0.00,WUHU216HW,2013-09-17 12:01:00,
2013-09-17 08:06:00,42.5,37.0,30.21,NNE,23,0.0,0.2,81,0.00,,,0.00,WUHU216HW,2013-09-17 12:06:00,
2013-09-17 08:11:00,42.7,37.2,30.21,NNE,23,0.0,0.2,81,0.00,,,0.00,WUHU216HW,2013-09-17 12:11:00,
2013-09-17 08:16:00,42.8,37.4,30.21,NNE,23,0.0,0.0,81,0.00,,,0.00,WUHU216HW,2013-09-17 12:16:00,
2013-09-17 08:21:00,42.8,37.7,30.20,WNW,293,0.0,0.4,82,0.00,,,0.00,WUHU216HW,2013-09-17 12:21:00,
2013-09-17 08:26:00,43.2,38.3,30.20,SE,135,0.0,1.6,83,0.00,,,0.00,WUHU216HW,2013-09-17 12:26:00,
2013-09-17 08:31:00,43.6,39.1,30.20,ENE,68,0.7,1.6,84,0.00,,,0.00,WUHU216HW,2013-09-17 12:31:00,
2013-09-17 08:36:00,44.3,39.8,30.20,SE,135,0.4,0.7,84,0.00,,,0.00,WUHU216HW,2013-09-17 12:36:00,
2013-09-17 08:41:00,44.8,40.6,30.20,ENE,68,1.8,1.8,85,0.00,,,0.00,WUHU216HW,2013-09-17 12:41:00,
2013-09-17 08:46:00,45.2,41.0,30.20,NNW,338,0.4,1.8,85,0.00,,,0.00,WUHU216HW,2013-09-17 12:46:00,
2013-09-17 08:51:00,45.7,41.5,30.20,SE,135,0.4,1.1,85,0.00,,,0.00,WUHU216HW,2013-09-17 12:51:00,
2013-09-17 08:56:00,46.3,42.0,30.20,NE,45,0.4,1.8,85,0.00,,,0.00,WUHU216HW,2013-09-17 12:56:00,
2013-09-17 09:01:00,46.8,42.6,30.20,East,90,0.0,1.8,85,0.00,,,0.00,WUHU216HW,2013-09-17 13:01:00,
2013-09-17 09:06:00,47.2,42.9,30.20,North,0,0.0,1.3,85,0.00,,,0.00,WUHU216HW,2013-09-17 13:06:00,
2013-09-17 09:11:00,47.5,43.2,30.20,SE,135,0.7,0.9,85,0.00,,,0.00,WUHU216HW,2013-09-17 13:11:00,
2013-09-17 09:16:00,48.2,43.9,30.20,East,90,0.7,0.9,85,0.00,,,0.00,WUHU216HW,2013-09-17 13:16:00,
2013-09-17 09:21:00,49.0,44.9,30.20,SE,135,1.1,2.2,86,0.00,,,0.00,WUHU216HW,2013-09-17 13:21:00,
2013-09-17 09:26:00,49.5,45.1,30.20,ENE,68,0.2,2.2,85,0.00,,,0.00,WUHU216HW,2013-09-17 13:26:00,
2013-09-17 09:31:00,50.0,45.9,30.20,East,90,0.4,1.8,86,0.00,,,0.00,WUHU216HW,2013-09-17 13:31:00,
2013-09-17 09:36:00,50.4,46.0,30.20,SE,135,0.0,0.9,85,0.00,,,0.00,WUHU216HW,2013-09-17 13:36:00,
2013-09-17 09:41:00,50.8,46.6,30.21,WSW,248,0.4,2.5,86,0.00,,,0.00,WUHU216HW,2013-09-17 13:41:00,
2013-09-17 09:46:00,51.1,46.7,30.20,East,90,0.4,2.5,85,0.00,,,0.00,WUHU216HW,2013-09-17 13:46:00,
2013-09-17 09:51:00,51.7,47.3,30.20,ENE,68,1.6,1.8,85,0.00,,,0.00,WUHU216HW,2013-09-17 13:51:00,
2013-09-17 09:56:00,52.6,47.9,30.20,East,90,1.8,2.9,84,0.00,,,0.00,WUHU216HW,2013-09-17 13:56:00,
2013-09-17 10:01:00,53.1,48.1,30.20,ESE,113,1.8,2.9,83,0.00,,,0.00,WUHU216HW,2013-09-17 14:01:00,
2013-09-17 10:06:00,53.6,48.3,30.20,ENE,68,0.9,1.8,82,0.00,,,0.00,WUHU216HW,2013-09-17 14:06:00,
2013-09-17 10:11:00,54.4,49.0,30.20,East,90,0.4,2.0,82,0.00,,,0.00,WUHU216HW,2013-09-17 14:11:00,
2013-09-17 10:16:00,55.1,49.3,30.20,ESE,113,3.6,3.6,81,0.00,,,0.00,WUHU216HW,2013-09-17 14:16:00,
2013-09-17 10:21:00,55.6,49.9,30.20,SE,135,0.4,3.6,81,0.00,,,0.00,WUHU216HW,2013-09-17 14:21:00,
2013-09-17 10:26:00,56.0,49.9,30.20,ESE,113,0.4,2.0,80,0.00,,,0.00,WUHU216HW,2013-09-17 14:26:00,
2013-09-17 10:31:00,56.3,50.2,30.20,ESE,113,2.7,2.7,80,0.00,,,0.00,WUHU216HW,2013-09-17 14:31:00,
2013-09-17 10:36:00,56.7,49.5,30.20,NW,315,0.4,2.7,77,0.00,,,0.00,WUHU216HW,2013-09-17 14:36:00,
2013-09-17 10:41:00,57.2,50.4,30.20,ESE,113,1.1,2.5,78,0.00,,,0.00,WUHU216HW,2013-09-17 14:41:00,
2013-09-17 10:46:00,58.0,51.1,30.20,ESE,113,0.2,2.5,78,0.00,,,0.00,WUHU216HW,2013-09-17 14:46:00,
2013-09-17 10:51:00,58.5,51.3,30.20,WSW,248,1.1,2.2,77,0.00,,,0.00,WUHU216HW,2013-09-17 14:51:00,
2013-09-17 10:56:00,59.0,51.5,30.20,ENE,68,1.8,3.1,76,0.00,,,0.00,WUHU216HW,2013-09-17 14:56:00,
2013-09-17 11:01:00,59.4,51.5,30.20,ESE,113,0.2,3.1,75,0.00,,,0.00,WUHU216HW,2013-09-17 15:01:00,
2013-09-17 11:06:00,60.1,51.8,30.20,East,90,1.3,3.4,74,0.00,,,0.00,WUHU216HW,2013-09-17 15:06:00,
2013-09-17 11:11:00,60.3,51.7,30.20,SSW,203,1.6,3.4,73,0.00,,,0.00,WUHU216HW,2013-09-17 15:11:00,
2013-09-17 11:16:00,60.5,51.8,30.20,East,90,1.8,2.9,73,0.00,,,0.00,WUHU216HW,2013-09-17 15:16:00,
2013-09-17 11:21:00,60.7,51.7,30.20,SE,135,0.7,1.8,72,0.00,,,0.00,WUHU216HW,2013-09-17 15:21:00,
2013-09-17 11:26:00,60.8,51.8,30.20,SW,225,0.4,1.8,72,0.00,,,0.00,WUHU216HW,2013-09-17 15:26:00,
2013-09-17 11:31:00,60.8,51.8,30.20,SSW,203,2.5,2.5,72,0.00,,,0.00,WUHU216HW,2013-09-17 15:31:00,
2013-09-17 11:36:00,61.0,51.7,30.20,ESE,113,0.4,2.5,71,0.00,,,0.00,WUHU216HW,2013-09-17 15:36:00,
2013-09-17 11:41:00,61.0,51.7,30.20,East,90,1.8,1.8,71,0.00,,,0.00,WUHU216HW,2013-09-17 15:41:00,
2013-09-17 11:46:00,61.6,52.1,30.20,SE,135,0.4,1.8,71,0.00,,,0.00,WUHU216HW,2013-09-17 15:46:00,
2013-09-17 11:51:00,61.6,51.8,30.20,SSW,203,1.1,1.6,70,0.00,,,0.00,WUHU216HW,2013-09-17 15:51:00,
2013-09-17 11:56:00,62.1,53.0,30.19,SE,135,1.1,2.2,72,0.00,,,0.00,WUHU216HW,2013-09-17 15:56:00,
2013-09-17 12:01:00,61.9,52.1,30.20,SW,225,0.7,2.2,70,0.00,,,0.00,WUHU216HW,2013-09-17 16:01:00,
2013-09-17 12:06:00,62.1,52.3,30.19,SSE,158,0.7,2.2,70,0.00,,,0.00,WUHU216HW,2013-09-17 16:06:00,
2013-09-17 12:11:00,62.6,52.7,30.19,SSE,158,0.9,2.2,70,0.00,,,0.00,WUHU216HW,2013-09-17 16:11:00,
2013-09-17 12:16:00,63.0,52.7,30.19,SSE,158,0.7,1.6,69,0.00,,,0.00,WUHU216HW,2013-09-17 16:16:00,
2013-09-17 12:21:00,62.8,52.1,30.19,SE,135,0.7,1.3,68,0.00,,,0.00,WUHU216HW,2013-09-17 16:21:00,
2013-09-17 12:26:00,62.8,52.1,30.19,SE,135,0.7,1.8,68,0.00,,,0.00,WUHU216HW,2013-09-17 16:26:00,
2013-09-17 12:31:00,62.8,52.1,30.19,SE,135,1.1,1.8,68,0.00,,,0.00,WUHU216HW,2013-09-17 16:31:00,
2013-09-17 12:36:00,62.6,51.9,30.19,East,90,2.0,2.2,68,0.00,,,0.00,WUHU216HW,2013-09-17 16:36:00,
2013-09-17 12:41:00,62.5,52.2,30.19,SE,135,1.1,2.2,69,0.00,,,0.00,WUHU216HW,2013-09-17 16:41:00,
2013-09-17 12:46:00,63.0,53.1,30.18,ENE,68,3.4,4.0,70,0.00,,,0.00,WUHU216HW,2013-09-17 16:46:00,
2013-09-17 12:51:00,63.4,52.7,30.18,SE,135,1.8,4.0,68,0.00,,,0.00,WUHU216HW,2013-09-17 16:51:00,
2013-09-17 12:56:00,63.4,52.2,30.18,SE,135,2.0,2.2,67,0.00,,,0.00,WUHU216HW,2013-09-17 16:56:00,
2013-09-17 13:01:00,63.4,52.2,30.18,East,90,1.1,2.0,67,0.00,,,0.00,WUHU216HW,2013-09-17 17:01:00,
2013-09-17 13:06:00,63.4,52.2,30.18,ENE,68,3.1,3.1,67,0.00,,,0.00,WUHU216HW,2013-09-17 17:06:00,
2013-09-17 13:11:00,63.9,53.2,30.18,ENE,68,1.8,3.1,68,0.00,,,0.00,WUHU216HW,2013-09-17 17:11:00,
2013-09-17 13:16:00,64.4,52.8,30.18,NE,45,2.2,4.5,66,0.00,,,0.00,WUHU216HW,2013-09-17 17:16:00,
2013-09-17 13:21:00,65.0,52.9,30.17,WSW,248,1.3,4.5,65,0.00,,,0.00,WUHU216HW,2013-09-17 17:21:00,
2013-09-17 13:26:00,65.0,52.9,30.17,ESE,113,1.3,1.8,65,0.00,,,0.00,WUHU216HW,2013-09-17 17:26:00,
2013-09-17 13:31:00,65.0,52.5,30.16,East,90,2.5,3.4,64,0.00,,,0.00,WUHU216HW,2013-09-17 17:31:00,
2013-09-17 13:36:00,65.2,52.7,30.16,ESE,113,0.4,4.0,64,0.00,,,0.00,WUHU216HW,2013-09-17 17:36:00,
2013-09-17 13:41:00,65.2,52.7,30.16,ESE,113,0.4,4.0,64,0.00,,,0.00,WUHU216HW,2013-09-17 17:41:00,
2013-09-17 13:46:00,65.2,53.1,30.16,ESE,113,1.6,3.8,65,0.00,,,0.00,WUHU216HW,2013-09-17 17:46:00,
2013-09-17 13:51:00,65.0,52.5,30.16,SE,135,0.9,3.8,64,0.00,,,0.00,WUHU216HW,2013-09-17 17:51:00,
2013-09-17 13:56:00,64.8,52.3,30.16,ENE,68,2.5,3.1,64,0.00,,,0.00,WUHU216HW,2013-09-17 17:56:00,
2013-09-17 14:01:00,64.8,52.8,30.16,East,90,2.5,3.1,65,0.00,,,0.00,WUHU216HW,2013-09-17 18:01:00,
2013-09-17 14:06:00,64.8,52.3,30.15,East,90,0.0,2.5,64,0.00,,,0.00,WUHU216HW,2013-09-17 18:06:00,
2013-09-17 14:11:00,65.2,52.7,30.15,SE,135,1.1,1.6,64,0.00,,,0.00,WUHU216HW,2013-09-17 18:11:00,
2013-09-17 14:16:00,65.9,52.5,30.15,East,90,1.6,4.0,62,0.00,,,0.00,WUHU216HW,2013-09-17 18:16:00,
2013-09-17 14:21:00,66.4,53.5,30.15,ESE,113,0.7,4.0,63,0.00,,,0.00,WUHU216HW,2013-09-17 18:21:00,
2013-09-17 14:26:00,67.0,53.1,30.15,ENE,68,2.7,2.7,61,0.00,,,0.00,WUHU216HW,2013-09-17 18:26:00,
2013-09-17 14:31:00,67.3,52.5,30.14,NE,45,3.1,3.1,59,0.00,,,0.00,WUHU216HW,2013-09-17 18:31:00,
2013-09-17 14:36:00,67.5,52.7,30.14,South,180,1.1,3.1,59,0.00,,,0.00,WUHU216HW,2013-09-17 18:36:00,
2013-09-17 14:41:00,67.7,52.8,30.14,SSE,158,0.7,2.7,59,0.00,,,0.00,WUHU216HW,2013-09-17 18:41:00,
2013-09-17 14:46:00,67.7,52.8,30.14,East,90,1.1,2.7,59,0.00,,,0.00,WUHU216HW,2013-09-17 18:46:00,
2013-09-17 14:51:00,67.9,53.0,30.14,SE,135,0.4,3.1,59,0.00,,,0.00,WUHU216HW,2013-09-17 18:51:00,
2013-09-17 14:56:00,67.9,52.0,30.14,SE,135,1.8,3.1,57,0.00,,,0.00,WUHU216HW,2013-09-17 18:56:00,
2013-09-17 15:01:00,67.5,51.7,30.14,ESE,113,0.4,2.7,57,0.00,,,0.00,WUHU216HW,2013-09-17 19:01:00,
2013-09-17 15:06:00,67.3,52.0,30.13,SE,135,1.1,2.2,58,0.00,,,0.00,WUHU216HW,2013-09-17 19:06:00,
2013-09-17 15:11:00,67.5,52.2,30.13,ENE,68,2.2,2.2,58,0.00,,,0.00,WUHU216HW,2013-09-17 19:11:00,
2013-09-17 15:16:00,67.7,52.4,30.13,SSE,158,0.7,2.2,58,0.00,,,0.00,WUHU216HW,2013-09-17 19:16:00,
2013-09-17 15:21:00,67.5,52.2,30.12,SSW,203,2.5,2.5,58,0.00,,,0.00,WUHU216HW,2013-09-17 19:21:00,
2013-09-17 15:26:00,68.0,53.6,30.12,ENE,68,1.1,2.5,60,0.00,,,0.00,WUHU216HW,2013-09-17 19:26:00,
2013-09-17 15:31:00,68.0,52.2,30.12,SE,135,1.1,2.7,57,0.00,,,0.00,WUHU216HW,2013-09-17 19:31:00,
2013-09-17 15:36:00,68.4,53.0,30.12,South,180,1.1,2.7,58,0.00,,,0.00,WUHU216HW,2013-09-17 19:36:00,
2013-09-17 15:41:00,68.6,52.2,30.11,SE,135,0.9,1.8,56,0.00,,,0.00,WUHU216HW,2013-09-17 19:41:00,
2013-09-17 15:46:00,68.4,52.0,30.11,ESE,113,1.8,2.0,56,0.00,,,0.00,WUHU216HW,2013-09-17 19:46:00,
2013-09-17 15:51:00,68.6,52.8,30.11,East,90,1.6,3.4,57,0.00,,,0.00,WUHU216HW,2013-09-17 19:51:00,
2013-09-17 15:56:00,68.4,52.0,30.11,ENE,68,1.3,3.8,56,0.00,,,0.00,WUHU216HW,2013-09-17 19:56:00,
2013-09-17 16:01:00,68.2,51.8,30.11,SE,135,2.0,3.8,56,0.00,,,0.00,WUHU216HW,2013-09-17 20:01:00,
2013-09-17 16:06:00,68.0,51.7,30.11,SE,135,1.1,2.5,56,0.00,,,0.00,WUHU216HW,2013-09-17 20:06:00,
2013-09-17 16:11:00,68.0,51.2,30.11,SE,135,1.1,1.6,55,0.00,,,0.00,WUHU216HW,2013-09-17 20:11:00,
2013-09-17 16:16:00,67.9,51.6,30.10,SE,135,0.9,1.1,56,0.00,,,0.00,WUHU216HW,2013-09-17 20:16:00,
2013-09-17 16:21:00,68.0,50.8,30.10,SE,135,1.8,2.0,54,0.00,,,0.00,WUHU216HW,2013-09-17 20:21:00,
2013-09-17 16:26:00,68.0,50.8,30.10,SE,135,0.7,2.0,54,0.00,,,0.00,WUHU216HW,2013-09-17 20:26:00,
2013-09-17 16:31:00,68.0,50.2,30.10,SE,135,0.4,2.5,53,0.00,,,0.00,WUHU216HW,2013-09-17 20:31:00,
2013-09-17 16:36:00,68.0,49.8,30.10,SE,135,0.4,2.5,52,0.00,,,0.00,WUHU216HW,2013-09-17 20:36:00,
2013-09-17 16:41:00,67.9,49.2,30.10,SE,135,1.1,2.2,51,0.00,,,0.00,WUHU216HW,2013-09-17 20:41:00,
2013-09-17 16:46:00,67.7,48.4,30.10,South,180,0.9,2.0,50,0.00,,,0.00,WUHU216HW,2013-09-17 20:46:00,
2013-09-17 16:51:00,67.7,48.4,30.10,ESE,113,0.7,2.0,50,0.00,,,0.00,WUHU216HW,2013-09-17 20:51:00,
2013-09-17 16:56:00,67.5,47.7,30.10,ESE,113,3.1,3.1,49,0.00,,,0.00,WUHU216HW,2013-09-17 20:56:00,
2013-09-17 17:02:00,67.3,47.5,30.10,ESE,113,2.5,3.1,49,0.00,,,0.00,WUHU216HW,2013-09-17 21:02:00,
2013-09-17 17:07:00,67.1,48.0,30.10,ESE,113,2.0,2.5,50,0.00,,,0.00,WUHU216HW,2013-09-17 21:07:00,
2013-09-17 17:12:00,67.0,46.6,30.10,SSE,158,0.9,2.5,48,0.00,,,0.00,WUHU216HW,2013-09-17 21:12:00,
2013-09-17 17:17:00,66.6,45.7,30.10,SE,135,0.9,2.5,47,0.00,,,0.00,WUHU216HW,2013-09-17 21:17:00,
2013-09-17 17:22:00,66.2,44.8,30.10,SE,135,0.9,1.6,46,0.00,,,0.00,WUHU216HW,2013-09-17 21:22:00,
2013-09-17 17:27:00,66.1,44.7,30.10,SE,135,0.9,1.6,46,0.00,,,0.00,WUHU216HW,2013-09-17 21:27:00,
2013-09-17 17:32:00,66.1,44.0,30.10,SE,135,0.7,1.3,45,0.00,,,0.00,WUHU216HW,2013-09-17 21:32:00,
2013-09-17 17:37:00,65.9,44.5,30.10,SSE,158,0.7,1.1,46,0.00,,,0.00,WUHU216HW,2013-09-17 21:37:00,
2013-09-17 17:42:00,65.9,44.5,30.10,SE,135,0.4,1.1,46,0.00,,,0.00,WUHU216HW,2013-09-17 21:42:00,
2013-09-17 17:47:00,65.9,45.0,30.10,SE,135,1.1,1.1,47,0.00,,,0.00,WUHU216HW,2013-09-17 21:47:00,
2013-09-17 17:52:00,65.9,45.0,30.10,SE,135,1.1,2.2,47,0.00,,,0.00,WUHU216HW,2013-09-17 21:52:00,
2013-09-17 17:57:00,65.5,44.1,30.10,SSW,203,0.7,2.2,46,0.00,,,0.00,WUHU216HW,2013-09-17 21:57:00,
2013-09-17 18:02:00,65.2,44.4,30.10,ESE,113,1.1,2.2,47,0.00,,,0.00,WUHU216HW,2013-09-17 22:02:00,
2013-09-17 18:07:00,65.2,44.4,30.10,East,90,1.8,2.2,47,0.00,,,0.00,WUHU216HW,2013-09-17 22:07:00,
2013-09-17 18:12:00,65.0,44.2,30.09,ESE,113,0.4,1.8,47,0.00,,,0.00,WUHU216HW,2013-09-17 22:12:00,
2013-09-17 18:17:00,64.8,44.0,30.09,SE,135,0.9,0.9,47,0.00,,,0.00,WUHU216HW,2013-09-17 22:17:00,
2013-09-17 18:22:00,64.6,43.8,30.09,South,180,0.0,1.1,47,0.00,,,0.00,WUHU216HW,2013-09-17 22:22:00,
2013-09-17 18:27:00,64.4,44.2,30.09,ESE,113,0.7,1.6,48,0.00,,,0.00,WUHU216HW,2013-09-17 22:27:00,
2013-09-17 18:32:00,64.1,43.3,30.09,SSE,158,0.0,1.6,47,0.00,,,0.00,WUHU216HW,2013-09-17 22:32:00,
2013-09-17 18:37:00,63.9,43.1,30.08,SSE,158,0.4,1.1,47,0.00,,,0.00,WUHU216HW,2013-09-17 22:37:00,
2013-09-17 18:42:00,63.7,43.0,30.08,SE,135,0.4,1.1,47,0.00,,,0.00,WUHU216HW,2013-09-17 22:42:00,
2013-09-17 18:47:00,63.5,41.7,30.09,SE,135,0.2,1.1,45,0.00,,,0.00,WUHU216HW,2013-09-17 22:47:00,
2013-09-17 18:52:00,63.2,41.3,30.08,SE,135,0.7,1.1,45,0.00,,,0.00,WUHU216HW,2013-09-17 22:52:00,
2013-09-17 18:57:00,63.0,41.8,30.08,SE,135,0.0,0.7,46,0.00,,,0.00,WUHU216HW,2013-09-17 22:57:00,
2013-09-17 19:02:00,62.6,42.0,30.08,SE,135,0.0,0.9,47,0.00,,,0.00,WUHU216HW,2013-09-17 23:02:00,
2013-09-17 19:07:00,62.5,42.4,30.08,SE,135,0.0,0.9,48,0.00,,,0.00,WUHU216HW,2013-09-17 23:07:00,
2013-09-17 19:12:00,62.3,42.8,30.07,SE,135,0.0,0.0,49,0.00,,,0.00,WUHU216HW,2013-09-17 23:12:00,
2013-09-17 19:17:00,62.1,43.3,30.07,SE,135,0.0,0.4,50,0.00,,,0.00,WUHU216HW,2013-09-17 23:17:00,
2013-09-17 19:22:00,61.7,43.4,30.07,SE,135,0.0,0.4,51,0.00,,,0.00,WUHU216HW,2013-09-17 23:22:00,
2013-09-17 19:27:00,61.4,43.6,30.07,SE,135,0.4,0.7,52,0.00,,,0.00,WUHU216HW,2013-09-17 23:27:00,
2013-09-17 19:32:00,61.2,43.9,30.07,SE,135,0.0,0.7,53,0.00,,,0.00,WUHU216HW,2013-09-17 23:32:00,
2013-09-17 19:37:00,61.2,43.9,30.07,SE,135,0.0,0.0,53,0.00,,,0.00,WUHU216HW,2013-09-17 23:37:00,
2013-09-17 19:42:00,61.0,44.2,30.06,SE,135,0.0,0.0,54,0.00,,,0.00,WUHU216HW,2013-09-17 23:42:00,
2013-09-17 19:47:00,60.8,44.1,30.06,SE,135,0.0,0.0,54,0.00,,,0.00,WUHU216HW,2013-09-17 23:47:00,
2013-09-17 19:52:00,60.5,44.2,30.06,SE,135,0.0,0.0,55,0.00,,,0.00,WUHU216HW,2013-09-17 23:52:00,
2013-09-17 19:57:00,60.1,43.8,30.06,SE,135,0.0,0.0,55,0.00,,,0.00,WUHU216HW,2013-09-17 23:57:00,
2013-09-17 20:02:00,59.9,44.2,30.06,SE,135,0.0,0.0,56,0.00,,,0.00,WUHU216HW,2013-09-18 00:02:00,
2013-09-17 20:07:00,59.6,43.8,30.06,SE,135,0.0,0.0,56,0.00,,,0.00,WUHU216HW,2013-09-18 00:07:00,
2013-09-17 20:12:00,59.4,43.7,30.06,SE,135,0.0,0.0,56,0.00,,,0.00,WUHU216HW,2013-09-18 00:12:00,
2013-09-17 20:17:00,58.9,43.1,30.06,SE,135,0.0,0.0,56,0.00,,,0.00,WUHU216HW,2013-09-18 00:17:00,
2013-09-17 20:22:00,58.7,43.5,30.06,SE,135,0.0,0.0,57,0.00,,,0.00,WUHU216HW,2013-09-18 00:22:00,
2013-09-17 20:27:00,58.3,43.6,30.05,SE,135,0.0,0.0,58,0.00,,,0.00,WUHU216HW,2013-09-18 00:27:00,
2013-09-17 20:32:00,58.0,43.3,30.05,SE,135,0.0,0.0,58,0.00,,,0.00,WUHU216HW,2013-09-18 00:32:00,
2013-09-17 20:37:00,57.8,43.1,30.05,SE,135,0.0,0.2,58,0.00,,,0.00,WUHU216HW,2013-09-18 00:37:00,
2013-09-17 20:42:00,57.2,43.1,30.05,SE,135,0.0,0.2,59,0.00,,,0.00,WUHU216HW,2013-09-18 00:42:00,
2013-09-17 20:47:00,57.1,42.9,30.05,SE,135,0.0,0.0,59,0.00,,,0.00,WUHU216HW,2013-09-18 00:47:00,
2013-09-17 20:52:00,56.9,43.2,30.05,SE,135,0.0,0.0,60,0.00,,,0.00,WUHU216HW,2013-09-18 00:52:00,
2013-09-17 20:57:00,56.5,42.8,30.06,SE,135,0.0,0.0,60,0.00,,,0.00,WUHU216HW,2013-09-18 00:57:00,
2013-09-17 21:02:00,56.2,42.9,30.06,SE,135,0.0,0.0,61,0.00,,,0.00,WUHU216HW,2013-09-18 01:02:00,
2013-09-17 21:07:00,55.8,42.6,30.06,SE,135,0.0,0.0,61,0.00,,,0.00,WUHU216HW,2013-09-18 01:07:00,
2013-09-17 21:12:00,55.8,42.6,30.06,SE,135,0.0,0.0,61,0.00,,,0.00,WUHU216HW,2013-09-18 01:12:00,
2013-09-17 21:17:00,55.6,42.8,30.06,SE,135,0.0,0.0,62,0.00,,,0.00,WUHU216HW,2013-09-18 01:17:00,
2013-09-17 21:22:00,55.6,42.8,30.05,SE,135,0.0,0.0,62,0.00,,,0.00,WUHU216HW,2013-09-18 01:22:00,
2013-09-17 21:27:00,55.4,43.0,30.05,SE,135,0.0,0.0,63,0.00,,,0.00,WUHU216HW,2013-09-18 01:27:00,
2013-09-17 21:32:00,55.3,42.9,30.05,SE,135,0.0,0.0,63,0.00,,,0.00,WUHU216HW,2013-09-18 01:32:00,
2013-09-17 21:37:00,55.1,43.1,30.05,SE,135,0.0,0.0,64,0.00,,,0.00,WUHU216HW,2013-09-18 01:37:00,
2013-09-17 21:42:00,54.9,42.9,30.05,SE,135,0.0,0.0,64,0.00,,,0.00,WUHU216HW,2013-09-18 01:42:00,
2013-09-17 21:47:00,54.7,42.8,30.05,SE,135,0.0,0.0,64,0.00,,,0.00,WUHU216HW,2013-09-18 01:47:00,
2013-09-17 21:52:00,54.7,43.1,30.04,SE,135,0.0,0.0,65,0.00,,,0.00,WUHU216HW,2013-09-18 01:52:00,
2013-09-17 21:58:00,54.4,42.9,30.04,SE,135,0.0,0.0,65,0.00,,,0.00,WUHU216HW,2013-09-18 01:58:00,
2013-09-17 22:03:00,54.2,43.0,30.04,SE,135,0.0,0.0,66,0.00,,,0.00,WUHU216HW,2013-09-18 02:03:00,
2013-09-17 22:08:00,54.0,42.8,30.05,SE,135,0.0,0.0,66,0.00,,,0.00,WUHU216HW,2013-09-18 02:08:00,
2013-09-17 22:13:00,53.6,42.5,30.05,SE,135,0.0,0.0,66,0.00,,,0.00,WUHU216HW,2013-09-18 02:13:00,
2013-09-17 22:18:00,53.6,42.9,30.05,SE,135,0.0,0.0,67,0.00,,,0.00,WUHU216HW,2013-09-18 02:18:00,
2013-09-17 22:23:00,53.5,42.8,30.05,SE,135,0.0,0.0,67,0.00,,,0.00,WUHU216HW,2013-09-18 02:23:00,
2013-09-17 22:28:00,53.3,42.6,30.05,SE,135,0.0,0.0,67,0.00,,,0.00,WUHU216HW,2013-09-18 02:28:00,
2013-09-17 22:33:00,53.3,42.6,30.05,SE,135,0.0,0.0,67,0.00,,,0.00,WUHU216HW,2013-09-18 02:33:00,
2013-09-17 22:38:00,53.1,42.4,30.05,SE,135,0.0,0.0,67,0.00,,,0.00,WUHU216HW,2013-09-18 02:38:00,
2013-09-17 22:43:00,53.1,42.9,30.05,SE,135,0.0,0.0,68,0.00,,,0.00,WUHU216HW,2013-09-18 02:43:00,
2013-09-17 22:48:00,52.9,42.7,30.05,SE,135,0.0,0.0,68,0.00,,,0.00,WUHU216HW,2013-09-18 02:48:00,
2013-09-17 22:53:00,52.7,42.5,30.05,SE,135,0.0,0.0,68,0.00,,,0.00,WUHU216HW,2013-09-18 02:53:00,
2013-09-17 22:58:00,52.7,42.9,30.04,SE,135,0.0,0.0,69,0.00,,,0.00,WUHU216HW,2013-09-18 02:58:00,
2013-09-17 23:03:00,52.7,42.9,30.04,SE,135,0.0,0.0,69,0.00,,,0.00,WUHU216HW,2013-09-18 03:03:00,
2013-09-17 23:08:00,52.6,42.8,30.04,SE,135,0.0,0.0,69,0.00,,,0.00,WUHU216HW,2013-09-18 03:08:00,
2013-09-17 23:13:00,52.4,42.6,30.04,SE,135,0.0,0.0,69,0.00,,,0.00,WUHU216HW,2013-09-18 03:13:00,
2013-09-17 23:18:00,52.4,42.9,30.04,SE,135,0.0,0.0,70,0.00,,,0.00,WUHU216HW,2013-09-18 03:18:00,
2013-09-17 23:23:00,52.2,42.9,30.04,SE,135,0.0,0.0,70,0.00,,,0.00,WUHU216HW,2013-09-18 03:23:00,
2013-09-17 23:28:00,52.0,42.7,30.04,SE,135,0.0,0.0,70,0.00,,,0.00,WUHU216HW,2013-09-18 03:28:00,
2013-09-17 23:33:00,52.0,42.7,30.04,SE,135,0.0,0.0,70,0.00,,,0.00,WUHU216HW,2013-09-18 03:33:00,
2013-09-17 23:38:00,51.8,42.0,30.04,SE,135,0.0,0.0,69,0.00,,,0.00,WUHU216HW,2013-09-18 03:38:00,
2013-09-17 23:43:00,51.8,42.5,30.04,SE,135,0.0,0.0,70,0.00,,,0.00,WUHU216HW,2013-09-18 03:43:00,
2013-09-17 23:48:00,51.8,42.5,30.04,SE,135,0.0,0.0,70,0.00,,,0.00,WUHU216HW,2013-09-18 03:48:00,
2013-09-17 23:53:00,51.8,42.5,30.04,SE,135,0.0,0.0,70,0.00,,,0.00,WUHU216HW,2013-09-18 03:53:00,
2013-09-17 23:58:00,51.7,42.7,30.03,SE,135,0.0,0.0,71,0.00,,,0.00,WUHU216HW,2013-09-18 03:58:00,